Regional Weather Roundup
Issued by NWS

Home | Current Version | Previous Version | Text Only | Print | Product List | Glossary On
Versions: 1 2 3 4 5 6 7 8 9 10 11 12 13 14 15 16 17 18 19 20 21 22 23 24 25 26 27 28 29 30 31 32 33 34 35 36 37 38 39 40 41 42 43 44 45 46 47 48 49 50
000
ASUS43 KMPX 270410
RWRMN
WEATHER ROUNDUP FOR MINNESOTA
NATIONAL WEATHER SERVICE TWIN CITIES/CHANHASSEN MN
1100 PM CDT SUN APR 26 2015


NOTE: "FAIR" INDICATES FEW OR NO CLOUDS BELOW 12,000 FEET WITH NO
SIGNIFICANT WEATHER AND/OR OBSTRUCTIONS TO VISIBILITY. N/A MEANS
CURRENT SKY AND/OR WEATHER CONDITIONS ARE NOT AVAILABLE.

MNZ060>063-068>070-270500-
   Twin Cities Metro

CITY           SKY/WX    TMP DP  RH WIND       PRES   REMARKS
TWIN CITIES    CLEAR     54  23  30 NE10      30.14R
ST PAUL        CLEAR     52  23  32 E6        30.15R
CRYSTAL        CLEAR     52  22  30 NE5       30.14R
BLAINE         CLEAR     50  23  34 CALM      30.15R
LAKEVILLE      CLEAR     48  27  43 NE6       30.14R
EDEN PRAIRIE   CLEAR     53  24  32 NE8       30.13R
SOUTH ST PAUL  CLEAR     53  23  32 NE7       30.14R
LAKE ELMO      FAIR      46  27  46 NE8       30.16R
$$
MNZ001>005-007-008-013>017-022>024-027-028-270500-
   Northwest Minnesota

CITY           SKY/WX    TMP DP  RH WIND       PRES   REMARKS
BEMIDJI        CLEAR     44  24  45 NE5       30.16R
HALLOCK        MOCLDY    55  19  24 NW3       30.14R
ROSEAU         MOCLDY    45  28  53 CALM      30.16S
WARROAD        PTCLDY    43  30  61 CALM      30.17S
THIEF RVR FALL PTCLDY    50  21  32 SE5       30.16R
CROOKSTON      FAIR      52  25  35 SE6       30.15S
FOSSTON        PTCLDY    43  23  45 CALM      30.16S
DETROIT LAKES  PTCLDY    50  21  32 CALM      30.17R
MOORHEAD       CLEAR     48  25  40 CALM      30.15R
PARK RAPIDS    CLEAR     51  17  26 E5        30.15R
MAHNOMEN       FAIR      52  23  32 E6        30.15S
$$
MNZ006-009>011-018-025>026-270500-
   North Central Minnesota

CITY           SKY/WX    TMP DP  RH WIND       PRES   REMARKS
BAUDETTE       PTCLDY    41  25  53 CALM      30.17R
FLAG ISLAND    PTCLDY    46  30  53 CALM      30.16R
INTL FALLS     CLEAR     32  21  64 CALM      30.17S
WASKISH        CLEAR     37  28  70 CALM      30.17S
BIG FORK       CLEAR     36  19  51 CALM      30.18R
LONGVILLE      CLEAR     36  28  75 CALM      30.16R
GRAND RAPIDS   CLEAR     39  18  41 E3        30.17R
CRANE LAKE     CLEAR     30  25  80 CALM      30.19S
ORR            CLEAR     37  19  48 CALM      30.15S
COOK           CLEAR     34  25  69 CALM      30.18R
WALKER         FAIR      40  17  39 CALM      30.16R
$$
MNZ012-019>021-037-270500-
   Northeast Minnesota

CITY           SKY/WX    TMP DP  RH WIND       PRES   REMARKS
DULUTH         CLEAR     39  24  55 CALM      30.17R
ELY            CLEAR     34  25  69 CALM      30.16S
HIBBING        CLEAR     32  18  56 CALM      30.17R
EVELETH        CLEAR     36  23  60 CALM      30.18S
DULUTH HARBOR  CLEAR     37  32  81 CALM      30.20R
TWO HARBORS    CLEAR     34  27  75 CALM      30.16S
SILVER BAY     CLEAR     30  25  80 CALM      30.17R
GRAND MARAIS     N/A     35  26  69 NW3       30.18R
G MARAIS ARPRT CLEAR     28  21  74 N6        30.17S WCI  22
$$
MNZ029>031-032-039>041-046>048-054>057-064-270500-
   West Central Minnesota

CITY           SKY/WX    TMP DP  RH WIND       PRES   REMARKS
FERGUS FALLS   CLEAR     46  23  39 E3        30.16R
WHEATON        CLEAR     43  25  49 SE3       30.17R
MORRIS         CLEAR     48  21  34 E6        30.15R
ALEXANDRIA     CLEAR     45  22  40 CALM      30.16R
ELBOW LAKE     FAIR      49  22  34 SE5       30.15R
WADENA         CLEAR     45  21  39 CALM      30.16R
GLENWOOD       CLEAR     48  18  29 NE5       30.16R
APPLETON       FAIR      43  30  61 CALM      30.15R
BENSON         FAIR      46  18  31 E3        30.15R
ORTONVILLE     CLEAR     52  21  30 E7        30.15R
MADISON        CLEAR     45  21  39 E3        30.15R
WILLMAR        FAIR      46  28  49 N5        30.16R
$$
MNZ033>034-036-042>043-049>051-058-059-270500-
   Central Minnesota

CITY           SKY/WX    TMP DP  RH WIND       PRES   REMARKS
ST CLOUD       CLEAR     44  21  40 CALM      30.15R
SAUK CENTRE    FAIR      43  24  46 CALM      30.16R
PAYNESVILLE    CLEAR     42  27  54 CALM      30.16R
AITKIN         CLEAR     37  27  65 CALM      30.15R
PINE RIVER     CLEAR     39  28  65 CALM      30.18S
BRAINERD       CLEAR     40  25  55 CALM      30.16R
STAPLES        CLEAR     39  25  56 CALM      30.16R
LONG PRAIRIE   FAIR      41  28  60 CALM      30.16R
LITTLE FALLS   CLEAR     37  28  70 CALM      30.16R
LITCHFIELD     CLEAR     50  27  40 NE3       30.16R
BUFFALO        CLEAR     46  26  45 CALM      30.16R
MAPLE LAKE     PTCLDY    44  30  57 CALM      30.16R
$$
MNZ037-044-045-052-053-270500-
   East Central Minnesota

CITY           SKY/WX    TMP DP  RH WIND       PRES   REMARKS
PRINCETON      CLEAR     43  25  49 CALM      30.16R
MORA           CLEAR     34  27  75 CALM      30.17S
CAMBRIDGE      CLEAR     46  28  49 CALM      30.14R
RUSH CITY      PTCLDY    48  24  38 E3        30.16R
MOOSE LAKE     CLEAR     39  23  52 CALM      30.16R
HINCKLEY       FAIR      39  21  48 CALM      30.16R
CLOQUET        CLEAR     36  23  60 CALM      30.17R
MCGREGOR       CLEAR     41  23  48 CALM      30.17R
$$
MNZ071>073-080-081-089-090-097-098-270500-
   Southwest Minnesota

CITY           SKY/WX    TMP DP  RH WIND       PRES   REMARKS
MONTEVIDEO     CLEAR     43  21  42 E5        30.16R
GRANITE FALLS  CLEAR     46  19  34 NE6       30.16R
CANBY          CLEAR     45  28  51 CALM      30.16R
MARSHALL       CLEAR     48  18  29 E7        30.14R
REDWOOD FALLS  CLEAR     52  17  25 NE3       30.14R
OLIVIA         CLEAR     46  21  36 E5        30.14R
PIPESTONE      CLEAR     48  27  43 NE6       30.12R
WINDOM         CLEAR     46  19  34 CALM      30.13R
WORTHINGTON    CLEAR     45  23  42 NE10      30.12R
JACKSON        CLEAR     46  21  36 E9        30.13R
TRACY          CLEAR     47  19  32 CALM      30.14R
SLAYTON        CLEAR     49  18  28 CALM      30.14R
$$
MNZ065>067-074>077-082>085-091>093-270500-
   South Central Minnesota

CITY           SKY/WX    TMP DP  RH WIND       PRES   REMARKS
MANKATO        CLEAR     52  32  46 NE3       30.13R
NEW ULM        CLEAR     52  18  25 CALM      30.13R
ST JAMES       CLEAR     46  19  34 CALM      30.14R
FAIRMONT       CLEAR     46  25  42 NE7       30.12R
GLENCOE        PTCLDY    51  27  39 NE3       30.14R
FARIBAULT      CLEAR     41  30  65 CALM      30.13R
OWATONNA       CLEAR     41  27  56 CALM      30.12R
WASECA         CLEAR     43  28  56 NE3       30.13R
ALBERT LEA     CLEAR     45  30  57 CALM      30.12R
$$
MNZ078>079-086>088-094>096-270500-
   Southeast Minnesota

CITY           SKY/WX    TMP DP  RH WIND       PRES   REMARKS
ROCHESTER      CLEAR     48  26  42 N10       30.12R
RED WING       CLEAR     52  19  28 NE8       30.12R
STANTON        CLEAR     44  27  50 NE7       30.12R
DODGE CENTER   CLEAR     50  25  37 N5        30.11R
WINONA         CLEAR     50  32  50 CALM      30.11R
AUSTIN         CLEAR     45  30  57 CALM      30.10S
PRESTON        CLEAR     47  22  37 N3        30.10R
$$
ABBREVIATIONS USED IN REMARKS
   TC - TEMPERATURES IN CELSIUS
  WCI - WIND CHILL INDEX
   HX - HEAT INDEX
  VSB - VISIBILITY
$$



USA.gov is the U.S. government's official web portal to all federal, state and local government web resources and services.